Temp
-16 -13 -12 -13 -12 -12 -11 -11 -10 -10 -10 -10 -10 -11 -10 -10 -10 -11 -11 -11 -11 -11 -10 -10 -11 -11 -11 -10 -10 -10 -11 -11 -11 -11 -11 -11 -11 -11 -11 -11 -11 -11 -12 -12
-15 -15 -14 -13 -13 -12 -12 -12 -12 -11 -11 -11 -11 -10 -11 -11 -11 -11 -11 -11 -11 -11 -11 -11 -11 -11 -11 -11 -11 -11 -11 -11 -11 -11 -11 -11 -12 -12 -12 -12 -12 -12 -12 -12
-16 -15 -14 -14 -14 -13 -13 -13 -12 -12 -11 -11 -11 -11 -11 -11 -11 -11 -11 -11 -11 -11 -11 -11 -11 -11 -11 -11 -11 -11 -11 -12 -12 -12 -12 -12 -12 -12 -12 -12 -13 -13 -13 -13
-16 -16 -15 -14 -14 -14 -14 -13 -13 -12 -12 -12 -11 -10 -11 -11 -11 -11 -11 -11 -11 -11 -12 -12 -12 -12 -12 -11 -12 -12 -12 -12 -12 -12 -12 -13 -13 -13 -13 -13 -13 -13 -13 -13
-16 -15 -16 -15 -14 -14 -14 -14 -13 -13 -12 -12 -11 -11 -11 -11 -11 -11 -11 -11 -12 -11 -12 -12 -12 -12 -12 -12 -12 -12 -13 -13 -13 -13 -13 -13 -13 -13 -13 -13 -13 -13 -13 -13
-16 -16 -15 -15 -15 -14 -14 -14 -14 -13 -13 -12 -12 -12 -11 -11 -11 -11 -11 -11 -12 -12 -12 -12 -12 -12 -12 -12 -13 -13 -14 -13 -13 -13 -13 -14 -14 -14 -14 -14 -13 -14 -14 -14
-16 -15 -15 -15 -15 -15 -14 -14 -14 -14 -13 -12 -12 -12 -11 -11 -11 -11 -11 -12 -12 -12 -12 -13 -12 -12 -13 -13 -13 -14 -14 -14 -14 -14 -14 -14 -14 -14 -14 -14 -14 -14 -14 -14
-17 -17 -17 -16 -15 -15 -15 -15 -15 -14 -13 -13 -12 -12 -12 -12 -12 -12 -12 -13 -13 -13 -13 -13 -13 -13 -13 -14 -14 -14 -14 -14 -14 -14 -14 -15 -15 -14 -14 -14 -14 -14 -15 -15
-18 -17 -16 -16 -16 -16 -16 -15 -16 -15 -14 -13 -13 -12 -12 -12 -12 -13 -14 -14 -14 -14 -14 -14 -14 -14 -14 -14 -14 -14 -15 -15 -15 -15 -15 -15 -15 -15 -15 -15 -15 -15 -16 -16
-18 -18 -17 -17 -17 -16 -16 -17 -16 -15 -15 -14 -13 -13 -13 -13 -14 -13 -14 -14 -14 -15 -15 -15 -15 -15 -15 -15 -15 -16 -15 -15 -15 -15 -15 -15 -15 -16 -16 -16 -16 -16 -17 -18
-18 -18 -17 -17 -17 -17 -17 -17 -16 -16 -15 -15 -14 -14 -14 -14 -15 -15 -15 -15 -15 -15 -16 -16 -16 -16 -16 -16 -16 -16 -16 -16 -15 -15 -15 -16 -16 -16 -16 -17 -17 -18 -18 -19
-19 -19 -19 -18 -18 -18 -17 -17 -17 -17 -16 -16 -16 -15 -15 -15 -15 -15 -15 -15 -16 -17 -17 -17 -17 -17 -17 -16 -16 -16 -16 -16 -16 -16 -17 -17 -17 -17 -17 -18 -19 -19 -19 -20
-19 -19 -19 -19 -19 -18 -18 -17 -18 -18 -18 -16 -16 -15 -16 -16 -16 -17 -17 -17 -18 -18 -18 -19 -18 -17 -17 -17 -16 -16 -17 -17 -17 -17 -17 -17 -18 -18 -19 -19 -19 -20 -20 -21
-21 -20 -20 -20 -19 -19 -18 -19 -19 -19 -18 -17 -16 -16 -16 -16 -17 -17 -18 -18 -18 -18 -19 -19 -19 -18 -18 -18 -18 -17 -17 -18 -17 -18 -18 -18 -18 -19 -20 -20 -21 -21 -21 -21
-21 -21 -21 -20 -20 -19 -18 -18 -18 -18 -17 -16 -17 -17 -17 -18 -19 -20 -19 -19 -19 -18 -18 -18 -18 -18 -19 -18 -18 -18 -18 -18 -18 -18 -18 -18 -19 -20 -21 -22 -22 -22 -22 -22
-22 -22 -21 -21 -20 -19 -19 -19 -19 -18 -17 -17 -18 -17 -18 -19 -19 -19 -20 -19 -19 -19 -19 -19 -18 -18 -18 -19 -18 -18 -18 -18 -18 -18 -18 -19 -20 -21 -22 -22 -22 -22 -22 -23
-22 -22 -22 -21 -21 -20 -18 -19 -20 -20 -20 -19 -19 -19 -19 -20 -20 -20 -20 -19 -18 -19 -19 -19 -19 -18 -19 -19 -19 -19 -18 -18 -18 -19 -19 -20 -20 -21 -22 -23 -23 -23 -23 -23
-23 -23 -23 -22 -23 -21 -20 -21 -21 -21 -20 -21 -20 -20 -21 -20 -20 -20 -20 -20 -20 -20 -20 -19 -19 -19 -19 -19 -19 -19 -19 -19 -19 -19 -20 -21 -21 -22 -23 -23 -23 -23 -23 -23
-24 -24 -24 -24 -23 -22 -20 -20 -22 -23 -21 -22 -22 -22 -21 -21 -20 -20 -21 -20 -20 -19 -19 -20 -19 -19 -19 -19 -19 -19 -19 -20 -20 -21 -22 -22 -22 -23 -23 -22 -22 -23 -23 -23
-24 -24 -24 -24 -24 -22 -20 -22 -23 -24 -19 -22 -23 -22 -22 -22 -21 -20 -20 -20 -20 -20 -19 -19 -19 -19 -19 -19 -19 -20 -20 -21 -21 -22 -23 -23 -23 -23 -23 -23 -23 -23 -24 -23
-24 -24 -24 -24 -24 -23 -21 -23 -24 -24 -20 -22 -22 -22 -22 -21 -21 -20 -20 -20 -20 -20 -20 -20 -20 -20 -20 -20 -20 -21 -21 -22 -23 -23 -24 -24 -23 -23 -23 -23 -23 -23 -23 -24
-25 -25 -25 -25 -25 -22 -22 -24 -25 -24 -23 -23 -23 -22 -22 -22 -21 -21 -21 -20 -20 -20 -20 -20 -20 -20 -21 -21 -22 -23 -23 -23 -24 -23 -24 -24 -24 -23 -23 -23 -23 -24 -24 -24
-25 -25 -25 -26 -24 -24 -23 -25 -25 -25 -24 -24 -23 -23 -22 -22 -22 -21 -21 -21 -21 -21 -20 -21 -22 -23 -23 -24 -24 -24 -24 -25 -25 -23 -24 -24 -24 -24 -23 -23 -24 -24 -24 -25
-25 -26 -26 -26 -24 -24 -25 -25 -25 -25 -25 -24 -23 -22 -22 -22 -22 -22 -22 -23 -23 -23 -23 -24 -25 -25 -24 -25 -25 -25 -24 -24 -24 -24 -24 -24 -24 -24 -25 -25 -25 -25 -26 -26
-26 -26 -25 -26 -25 -25 -25 -25 -25 -26 -25 -24 -24 -24 -23 -23 -24 -24 -24 -24 -25 -25 -25 -25 -25 -25 -25 -25 -25 -25 -24 -24 -23 -24 -24 -25 -25 -24 -24 -25 -26 -26 -26 -27
-26 -26 -26 -26 -25 -25 -25 -24 -25 -25 -26 -26 -26 -25 -24 -25 -25 -26 -25 -25 -26 -25 -25 -25 -25 -24 -24 -25 -24 -24 -24 -25 -25 -25 -25 -24 -25 -26 -26 -26 -26 -27 -27 -27
Height
5752 5759 5764 5767 5771 5775 5779 5784 5788 5794 5799 5804 5808 5812 5813 5817 5821 5824 5824 5825 5825 5824 5823 5826 5826 5823 5821 5822 5821 5820 5818 5816 5814 5812 5810 5807 5805 5802 5800 5797 5795 5794 5791 5788
5744 5750 5756 5758 5763 5767 5771 5776 5780 5785 5791 5795 5798 5806 5807 5809 5813 5816 5817 5817 5816 5815 5818 5818 5817 5815 5814 5812 5811 5810 5808 5806 5805 5803 5800 5798 5795 5792 5790 5788 5785 5783 5779 5776
5738 5743 5747 5751 5755 5759 5764 5768 5772 5775 5781 5787 5790 5796 5799 5802 5804 5806 5806 5807 5808 5808 5809 5809 5807 5806 5805 5803 5801 5799 5797 5795 5793 5791 5789 5787 5784 5782 5780 5778 5775 5771 5768 5764
5728 5734 5739 5743 5748 5752 5755 5760 5764 5766 5772 5777 5781 5783 5792 5794 5794 5796 5797 5799 5798 5799 5799 5799 5797 5796 5795 5793 5791 5789 5786 5784 5782 5780 5777 5775 5773 5770 5768 5766 5763 5759 5756 5753
5722 5727 5732 5735 5740 5743 5748 5752 5756 5758 5762 5766 5773 5774 5782 5784 5785 5786 5788 5788 5788 5789 5789 5788 5787 5784 5782 5780 5779 5776 5774 5772 5770 5768 5766 5763 5760 5758 5756 5754 5751 5747 5744 5741
5708 5714 5721 5727 5731 5734 5738 5742 5746 5749 5753 5757 5764 5766 5767 5774 5774 5777 5779 5778 5779 5779 5778 5777 5774 5771 5770 5768 5765 5763 5762 5761 5759 5757 5754 5752 5749 5747 5745 5742 5739 5736 5732 5729
5701 5705 5712 5717 5721 5725 5730 5734 5737 5741 5744 5750 5753 5756 5758 5759 5764 5767 5770 5768 5767 5767 5766 5764 5762 5760 5758 5755 5752 5751 5750 5749 5747 5745 5742 5740 5738 5735 5733 5730 5727 5724 5721 5718
5689 5694 5701 5709 5714 5717 5720 5724 5727 5729 5735 5740 5742 5747 5751 5751 5748 5752 5755 5756 5756 5754 5751 5751 5749 5747 5745 5743 5741 5741 5739 5737 5735 5733 5730 5728 5725 5723 5720 5717 5714 5712 5708 5705
5680 5686 5692 5699 5702 5707 5711 5713 5720 5722 5725 5728 5732 5738 5743 5741 5740 5740 5741 5741 5742 5741 5740 5738 5736 5735 5734 5732 5731 5729 5728 5726 5723 5721 5718 5716 5714 5711 5708 5705 5702 5699 5695 5691
5668 5673 5680 5686 5691 5695 5699 5705 5709 5711 5715 5719 5723 5726 5729 5729 5728 5729 5729 5728 5728 5728 5728 5726 5724 5723 5722 5721 5720 5718 5716 5714 5711 5708 5707 5705 5702 5699 5696 5693 5690 5686 5682 5679
5657 5663 5669 5673 5679 5687 5691 5695 5699 5702 5706 5707 5711 5714 5716 5717 5717 5716 5716 5717 5716 5716 5716 5715 5714 5713 5712 5709 5707 5706 5704 5702 5699 5697 5695 5693 5690 5687 5684 5681 5678 5674 5670 5667
5649 5652 5657 5663 5669 5672 5677 5683 5686 5687 5693 5697 5700 5704 5702 5704 5704 5703 5701 5701 5701 5701 5701 5704 5704 5702 5700 5698 5697 5694 5692 5690 5688 5686 5683 5680 5677 5675 5671 5668 5664 5661 5657 5654
5640 5641 5646 5651 5656 5661 5665 5671 5676 5679 5682 5685 5687 5691 5689 5694 5692 5691 5687 5686 5688 5689 5689 5690 5691 5688 5685 5685 5683 5680 5678 5676 5674 5673 5670 5667 5664 5661 5657 5654 5650 5647 5645 5642
5629 5632 5637 5643 5648 5653 5657 5661 5664 5666 5668 5673 5675 5679 5680 5679 5680 5675 5676 5676 5674 5677 5680 5678 5675 5672 5672 5669 5666 5666 5665 5664 5661 5658 5655 5653 5650 5646 5643 5640 5637 5635 5632 5629
5623 5625 5629 5633 5637 5640 5645 5649 5652 5655 5658 5660 5662 5666 5669 5670 5667 5663 5662 5663 5666 5665 5663 5662 5662 5660 5659 5657 5654 5652 5650 5650 5648 5644 5641 5638 5634 5632 5630 5627 5624 5621 5619 5615
5616 5619 5621 5624 5626 5629 5634 5638 5640 5642 5646 5649 5651 5655 5659 5659 5651 5652 5652 5652 5651 5650 5649 5647 5646 5646 5646 5644 5642 5639 5637 5636 5634 5631 5628 5624 5621 5619 5616 5613 5611 5608 5605 5601
5609 5611 5615 5619 5620 5621 5627 5629 5632 5636 5637 5638 5640 5645 5643 5643 5642 5639 5637 5636 5635 5636 5636 5636 5634 5632 5630 5628 5628 5627 5625 5623 5619 5616 5613 5610 5607 5605 5603 5600 5597 5595 5592 5588
5600 5603 5607 5610 5612 5611 5618 5620 5622 5621 5625 5628 5628 5631 5632 5628 5625 5624 5623 5623 5626 5625 5624 5622 5621 5620 5618 5617 5615 5613 5610 5607 5603 5600 5599 5596 5593 5591 5589 5586 5584 5581 5578 5575
5591 5594 5598 5599 5601 5606 5609 5610 5612 5611 5616 5615 5618 5619 5616 5614 5612 5618 5610 5609 5611 5610 5610 5609 5607 5605 5604 5602 5599 5595 5593 5591 5588 5585 5583 5582 5580 5578 5576 5574 5570 5568 5564 5561
5586 5587 5590 5590 5590 5592 5602 5601 5596 5597 5605 5613 5604 5603 5601 5600 5599 5606 5598 5596 5594 5594 5594 5594 5592 5590 5588 5586 5582 5579 5576 5573 5572 5570 5569 5568 5566 5564 5562 5560 5558 5554 5550 5547
5576 5577 5580 5580 5578 5582 5591 5584 5585 5583 5603 5591 5590 5589 5588 5587 5586 5588 5586 5583 5580 5579 5577 5576 5574 5572 5570 5567 5563 5561 5559 5556 5555 5556 5555 5555 5553 5551 5550 5546 5543 5539 5536 5533
5567 5567 5569 5569 5569 5568 5586 5569 5570 5575 5576 5578 5576 5574 5570 5569 5569 5569 5568 5566 5564 5562 5559 5557 5554 5552 5549 5547 5545 5544 5543 5542 5542 5543 5540 5542 5541 5539 5536 5533 5530 5527 5524 5520
5554 5558 5559 5558 5560 5562 5559 5557 5557 5557 5559 5561 5559 5558 5555 5553 5553 5553 5552 5548 5545 5543 5540 5537 5536 5533 5531 5530 5529 5529 5530 5529 5529 5531 5529 5528 5527 5526 5523 5520 5516 5513 5509 5504
5543 5545 5543 5544 5550 5552 5548 5546 5544 5541 5539 5538 5537 5537 5536 5534 5534 5532 5531 5529 5527 5524 5521 5520 5518 5518 5518 5517 5517 5517 5517 5519 5518 5517 5516 5516 5516 5513 5510 5506 5503 5499 5495 5491
5534 5533 5534 5527 5534 5534 5533 5532 5528 5522 5519 5519 5517 5515 5514 5513 5515 5514 5514 5514 5511 5508 5506 5506 5507 5507 5508 5508 5508 5508 5508 5507 5508 5506 5505 5505 5503 5501 5498 5494 5491 5487 5482 5477
5524 5521 5515 5510 5517 5510 5513 5515 5505 5499 5496 5496 5496 5496 5496 5499 5498 5498 5498 5497 5496 5496 5495 5496 5497 5498 5499 5499 5499 5500 5500 5500 5500 5500 5498 5496 5493 5490 5487 5483 5479 5473 5467 5461
Wind_Speed
47 43 42 41 42 46 46 46 48 50 49 45 43 40 40 37 34 30 31 31 31 33 35 33 35 38 42 42 43 42 42 42 43 42 42 43 46 50 50 48 48 49 48 47
46 49 42 42 43 46 47 46 47 50 49 47 45 41 40 39 36 35 34 35 37 39 36 36 42 46 47 48 48 49 50 49 46 45 46 50 53 50 48 49 50 50 48 48
46 45 45 43 42 44 44 44 44 48 49 47 47 44 43 41 39 39 39 40 40 39 41 43 42 42 43 47 50 51 51 50 49 51 54 54 52 49 50 50 48 47 49 49
50 52 48 43 43 43 43 43 44 47 46 47 47 50 44 41 42 42 42 44 43 45 44 46 48 49 52 55 56 56 55 55 55 54 52 51 51 51 48 46 46 48 50 50
50 48 49 54 44 45 44 43 44 45 46 47 47 49 45 44 43 43 46 47 47 50 49 51 53 57 60 59 58 57 56 54 51 51 50 50 48 46 47 47 48 50 51 51
50 55 50 51 51 45 45 44 44 45 46 48 44 45 51 47 49 51 51 52 50 49 51 54 59 61 61 59 57 55 53 51 51 49 46 46 46 46 46 48 50 51 52 52
46 51 56 47 51 51 46 42 43 44 44 46 46 47 52 52 48 49 52 52 52 55 59 60 61 62 59 54 52 50 49 47 47 46 44 44 45 47 49 50 51 52 52 53
54 47 52 50 45 45 44 45 46 48 49 49 52 52 50 47 51 54 53 54 58 55 55 57 55 51 50 49 49 49 47 45 44 44 45 46 48 49 50 51 51 51 51 51
54 57 47 48 49 48 45 46 45 47 48 51 53 52 50 51 57 56 56 56 55 54 53 49 46 47 46 45 45 44 44 44 45 47 48 49 50 50 50 50 51 51 51 51
57 56 57 60 52 49 49 46 47 52 52 54 55 57 59 60 60 60 57 55 55 54 52 50 50 49 46 43 42 43 44 46 47 48 49 49 50 49 50 50 51 51 51 51
49 54 56 56 60 59 52 51 52 56 59 61 60 59 58 58 58 57 58 56 54 50 47 45 46 45 43 44 44 44 45 46 49 50 49 49 49 49 51 52 51 51 51 50
45 50 50 52 51 52 52 54 59 63 60 57 55 54 56 56 57 57 58 55 52 50 48 43 38 39 42 45 44 47 48 47 47 48 48 49 50 52 52 50 50 50 50 51
37 41 44 48 50 51 53 51 51 51 51 53 54 54 56 54 57 54 54 54 52 47 44 43 42 45 48 47 48 48 47 48 48 48 50 51 52 51 50 49 50 49 49 49
33 37 40 39 40 42 45 45 46 48 50 50 51 51 52 51 49 51 50 48 47 46 44 46 47 48 46 48 50 49 49 48 51 51 52 53 51 48 48 47 48 47 46 47
34 38 37 38 41 44 45 45 45 47 48 50 49 47 45 44 45 46 48 48 48 50 51 51 49 49 49 49 52 52 53 52 52 54 55 54 51 47 45 45 47 48 49 48
32 32 35 39 42 44 44 45 46 47 46 46 45 44 39 40 47 49 49 51 53 53 53 53 53 51 50 50 52 54 55 56 56 57 56 55 52 48 44 46 49 50 50 47
39 38 37 37 38 42 43 44 43 43 44 46 48 45 47 48 48 49 52 52 55 55 54 54 54 56 56 56 54 54 56 57 59 59 57 55 54 51 47 49 50 51 49 46
40 41 43 45 45 48 45 45 45 48 46 45 47 45 43 47 49 51 52 53 52 53 54 55 56 56 58 58 59 59 60 61 61 62 57 56 53 50 51 51 51 50 52 52
35 40 41 43 47 47 47 48 47 45 47 46 41 42 47 48 51 48 53 54 54 54 56 56 58 58 60 60 62 64 65 63 62 61 59 54 51 50 49 43 49 54 53 53
31 35 35 40 44 46 42 45 47 47 47 36 43 46 49 51 53 50 54 57 57 58 59 58 59 60 60 62 64 66 67 67 65 62 58 51 49 51 51 49 54 51 54 54
38 38 40 45 49 50 45 52 50 53 44 48 51 51 52 54 55 55 56 57 59 59 60 60 61 61 62 63 64 65 66 67 66 60 54 49 45 42 45 47 51 57 53 50
44 41 44 48 53 58 45 51 53 52 52 53 55 55 57 58 58 57 59 60 61 61 60 62 63 65 67 66 63 60 59 56 50 48 49 48 46 47 47 51 46 44 49 54
51 49 50 52 54 56 58 58 63 64 62 62 62 61 62 63 61 61 61 62 62 60 61 62 62 60 59 54 49 41 37 36 35 40 47 49 46 47 48 46 45 49 53 53
52 51 52 55 60 59 62 67 70 73 74 73 70 68 66 66 65 63 60 56 56 55 57 53 49 45 39 36 32 33 36 35 38 40 42 44 45 39 38 42 46 49 50 52
54 56 59 64 68 69 73 75 76 76 75 73 70 69 68 65 57 57 54 48 47 47 42 38 36 34 33 31 34 33 31 35 39 30 25 27 34 41 45 47 47 49 53 55
57 62 68 74 75 80 83 86 89 82 74 68 66 67 65 54 47 45 43 40 37 35 32 32 34 34 34 29 26 26 32 32 26 28 33 36 37 39 42 46 49 52 56 59
Wind_Direction
234 244 242 241 239 238 234 233 235 235 234 238 240 241 246 245 249 253 256 261 265 266 270 281 284 286 287 292 293 292 291 289 288 287 287 286 289 291 291 289 289 291 292 290
247 237 241 238 240 239 235 232 233 234 235 237 241 242 248 252 255 258 262 267 267 271 278 283 288 288 288 291 292 291 289 287 285 284 283 285 288 288 287 288 290 290 289 290
234 236 237 237 236 237 235 233 232 235 236 238 241 243 247 253 259 262 265 269 272 272 274 275 280 287 290 290 291 292 288 286 285 285 286 288 286 287 288 289 288 288 288 288
236 238 239 239 237 237 238 235 234 237 238 238 242 246 246 251 257 262 267 270 270 273 271 273 278 286 292 291 290 289 286 284 285 286 287 287 287 289 288 288 288 288 287 288
238 238 242 243 241 236 235 237 238 239 242 242 244 250 248 253 256 261 266 268 271 273 273 275 281 287 290 288 288 286 283 282 283 284 284 286 286 286 286 288 289 288 287 288
236 233 239 239 242 240 237 236 237 240 243 246 247 252 255 254 258 262 266 268 269 271 275 278 280 284 286 286 285 283 282 282 283 283 283 282 282 284 286 287 286 286 287 289
234 235 236 241 237 239 237 238 239 240 242 248 248 250 256 260 260 265 267 269 273 276 278 278 281 283 282 282 282 284 284 284 284 282 281 282 283 284 284 283 284 285 287 289
225 230 233 239 239 238 237 238 242 242 243 250 255 256 255 260 270 270 270 272 277 278 280 282 283 281 281 281 282 283 283 283 281 282 282 283 282 283 283 284 285 287 290 292
237 234 234 236 240 239 238 239 242 243 244 245 248 252 257 261 262 268 275 276 277 280 280 279 281 283 282 280 279 280 280 280 281 281 282 282 283 283 284 286 288 291 291 291
239 239 238 238 239 238 239 240 242 246 249 253 257 259 260 260 265 270 274 277 277 279 279 280 282 281 279 279 277 275 276 278 278 278 279 281 282 283 286 288 289 290 289 288
241 240 242 241 242 241 240 242 244 250 253 255 256 257 260 262 266 270 271 274 277 275 278 280 278 277 275 274 273 275 276 277 278 280 281 282 285 287 288 289 289 288 285 284
238 240 243 246 246 244 244 244 245 248 251 257 261 261 264 266 269 271 275 279 280 284 284 280 274 272 270 271 275 276 278 278 278 281 284 286 287 288 288 288 287 285 283 283
234 235 236 240 242 243 246 249 251 252 252 255 257 263 265 267 274 277 277 278 283 282 278 279 276 274 274 278 278 277 277 279 280 282 283 283 284 286 286 285 282 282 282 283
230 237 239 241 242 241 241 243 247 250 252 254 257 258 262 270 274 274 278 277 274 277 281 280 280 280 281 279 278 279 280 279 281 282 283 284 284 284 284 281 280 280 282 283
227 235 238 243 242 243 244 246 250 252 255 256 258 259 263 265 268 270 271 275 277 276 276 275 275 275 274 276 278 280 280 280 280 281 283 285 285 284 283 277 277 279 281 280
226 224 227 233 241 244 247 249 250 252 254 257 261 262 264 267 264 267 272 272 272 272 274 274 275 273 274 273 274 276 278 281 282 282 282 282 284 282 279 276 277 281 284 285
227 231 233 241 245 249 248 250 256 259 261 261 262 265 264 266 270 269 266 265 267 270 272 273 275 278 278 278 278 278 280 280 280 281 282 282 283 281 278 277 277 280 284 283
241 240 241 243 240 246 254 259 259 259 261 263 263 266 269 265 265 265 268 270 270 271 272 273 274 276 278 280 281 281 281 281 280 280 279 281 281 279 279 281 280 280 284 286
237 240 243 249 251 252 253 256 261 261 258 262 270 267 266 268 268 272 276 275 274 275 275 277 279 279 280 279 280 279 279 278 277 277 280 282 280 279 283 280 271 283 286 282
248 252 252 255 258 261 260 259 267 269 261 274 272 268 267 268 271 271 274 275 277 278 278 278 278 278 277 277 276 276 276 276 274 275 278 281 281 279 282 277 278 284 288 283
263 268 272 267 266 261 260 268 274 274 271 271 274 275 272 272 274 271 272 275 278 279 280 280 280 278 276 275 274 274 273 273 274 278 277 278 280 281 275 281 288 287 278 267
260 264 271 269 268 269 272 275 278 282 280 282 278 278 278 277 276 278 279 280 280 279 280 279 278 276 274 274 275 277 277 278 280 278 278 273 277 280 286 287 285 276 272 277
256 268 274 271 273 274 275 282 289 287 284 288 285 280 277 278 279 278 279 279 279 279 277 274 276 279 279 281 283 284 270 281 268 270 280 271 275 282 272 272 269 269 280 295
259 267 265 267 275 273 275 281 286 292 292 289 286 283 281 280 279 279 279 278 277 275 275 276 276 278 279 278 275 265 272 267 269 275 268 272 273 264 269 274 279 288 293 294
262 266 271 272 272 275 276 282 291 292 287 283 279 278 277 277 277 278 277 275 275 272 271 270 272 269 272 280 278 271 257 267 279 266 265 261 273 282 287 291 292 293 294 298
270 273 277 279 279 282 282 283 283 282 277 276 275 273 274 281 276 274 278 278 272 263 262 266 268 274 277 278 267 273 264 277 271 272 274 278 286 291 291 291 295 299 301 302